Year,Month,Day,Hour,Minute,Value (Times are PST for temperature in C)
2008,11,22,00,00,6.70
2008,11,22,00,01,6.60
2008,11,22,00,02,6.60
2008,11,22,00,03,6.60
2008,11,22,00,04,6.60
2008,11,22,00,05,6.50
2008,11,22,00,06,6.50
2008,11,22,00,07,6.50
2008,11,22,00,08,6.50
2008,11,22,00,09,6.60
2008,11,22,00,10,6.60
2008,11,22,00,11,6.60
2008,11,22,00,12,6.60
2008,11,22,00,13,6.60
2008,11,22,00,14,6.60
2008,11,22,00,15,6.60
2008,11,22,00,16,6.60
2008,11,22,00,17,6.60
2008,11,22,00,18,6.70
2008,11,22,00,19,6.60
2008,11,22,00,20,6.60
2008,11,22,00,21,6.60
2008,11,22,00,22,6.50
2008,11,22,00,23,6.50
2008,11,22,00,24,6.50
2008,11,22,00,25,6.50
2008,11,22,00,26,6.40
2008,11,22,00,27,6.40
2008,11,22,00,28,6.40
2008,11,22,00,29,6.30
2008,11,22,00,30,6.30
2008,11,22,00,31,6.30
2008,11,22,00,32,6.30
2008,11,22,00,33,6.30
2008,11,22,00,34,6.20
2008,11,22,00,35,6.20
2008,11,22,00,36,6.20
2008,11,22,00,37,6.20
2008,11,22,00,38,6.10
2008,11,22,00,39,6.10
2008,11,22,00,40,6.10
2008,11,22,00,41,6.10
2008,11,22,00,42,6.10
2008,11,22,00,43,6.10
2008,11,22,00,44,6.10
2008,11,22,00,45,6.10
2008,11,22,00,46,6.10
2008,11,22,00,47,6.10
2008,11,22,00,48,6.10
2008,11,22,00,49,6.10
2008,11,22,00,50,6.10
2008,11,22,00,51,6.20
2008,11,22,00,52,6.20
2008,11,22,00,53,6.20
2008,11,22,00,54,6.20
2008,11,22,00,55,6.30
2008,11,22,00,56,6.30
2008,11,22,00,57,6.30
2008,11,22,00,58,6.30
2008,11,22,00,59,6.30
2008,11,22,01,00,6.30
2008,11,22,01,01,6.30
2008,11,22,01,02,6.30
2008,11,22,01,03,6.30
2008,11,22,01,04,6.20
2008,11,22,01,05,6.20
2008,11,22,01,06,6.20
2008,11,22,01,07,6.10
2008,11,22,01,08,6.00
2008,11,22,01,09,6.00
2008,11,22,01,10,5.90
2008,11,22,01,11,5.90
2008,11,22,01,12,5.90
2008,11,22,01,13,5.90
2008,11,22,01,14,6.00
2008,11,22,01,15,6.00
2008,11,22,01,16,6.00
2008,11,22,01,17,6.10
2008,11,22,01,18,6.10
2008,11,22,01,19,6.20
2008,11,22,01,20,6.20
2008,11,22,01,21,6.10
2008,11,22,01,22,6.10
2008,11,22,01,23,6.00
2008,11,22,01,24,5.90
2008,11,22,01,25,5.90
2008,11,22,01,26,6.00
2008,11,22,01,27,6.00
2008,11,22,01,28,6.10
2008,11,22,01,29,6.10
2008,11,22,01,30,6.20
2008,11,22,01,31,6.20
2008,11,22,01,32,6.20
2008,11,22,01,33,6.20
2008,11,22,01,34,6.20
2008,11,22,01,35,6.20
2008,11,22,01,36,6.20
2008,11,22,01,37,6.20
2008,11,22,01,38,6.20
2008,11,22,01,39,6.20
2008,11,22,01,40,6.30
2008,11,22,01,41,6.30
2008,11,22,01,42,6.20
2008,11,22,01,43,6.20
2008,11,22,01,44,6.10
2008,11,22,01,45,6.10
2008,11,22,01,46,6.00
2008,11,22,01,47,6.00
2008,11,22,01,48,6.00
2008,11,22,01,49,5.90
2008,11,22,01,50,5.90
2008,11,22,01,51,5.90
2008,11,22,01,52,5.90
2008,11,22,01,53,5.80
2008,11,22,01,54,5.80
2008,11,22,01,55,5.80
2008,11,22,01,56,5.70
2008,11,22,01,57,5.70
2008,11,22,01,58,5.70
2008,11,22,01,59,5.70
2008,11,22,02,00,5.70
2008,11,22,02,01,5.70
2008,11,22,02,02,5.70
2008,11,22,02,03,5.70
2008,11,22,02,04,5.60
2008,11,22,02,05,5.60
2008,11,22,02,06,5.50
2008,11,22,02,07,5.50
2008,11,22,02,08,5.40
2008,11,22,02,09,5.30
2008,11,22,02,10,5.40
2008,11,22,02,11,5.40
2008,11,22,02,12,5.50
2008,11,22,02,13,5.50
2008,11,22,02,14,5.50
2008,11,22,02,15,5.50
2008,11,22,02,16,5.40
2008,11,22,02,17,5.40
2008,11,22,02,18,5.40
2008,11,22,02,19,5.40
2008,11,22,02,20,5.40
2008,11,22,02,21,5.40
2008,11,22,02,22,5.40
2008,11,22,02,23,5.40
2008,11,22,02,24,5.40
2008,11,22,02,25,5.40
2008,11,22,02,26,5.40
2008,11,22,02,27,5.40
2008,11,22,02,28,5.40
2008,11,22,02,29,5.40
2008,11,22,02,30,5.50
2008,11,22,02,31,5.50
2008,11,22,02,32,5.60
2008,11,22,02,33,5.60
2008,11,22,02,34,5.60
2008,11,22,02,35,5.60
2008,11,22,02,36,5.60
2008,11,22,02,37,5.60
2008,11,22,02,38,5.60
2008,11,22,02,39,5.70
2008,11,22,02,40,5.70
2008,11,22,02,41,5.70
2008,11,22,02,42,5.80
2008,11,22,02,43,5.80
2008,11,22,02,44,5.80
2008,11,22,02,45,5.80
2008,11,22,02,46,5.80
2008,11,22,02,47,5.80
2008,11,22,02,48,5.80
2008,11,22,02,49,5.80
2008,11,22,02,50,5.80
2008,11,22,02,51,5.80
2008,11,22,02,52,5.80
2008,11,22,02,53,5.80
2008,11,22,02,54,5.80
2008,11,22,02,55,5.80
2008,11,22,02,56,5.90
2008,11,22,02,57,5.90
2008,11,22,02,58,5.90
2008,11,22,02,59,5.90
2008,11,22,03,00,5.90
2008,11,22,03,01,6.00
2008,11,22,03,02,6.00
2008,11,22,03,03,6.10
2008,11,22,03,04,6.10
2008,11,22,03,05,6.10
2008,11,22,03,06,6.10
2008,11,22,03,07,6.20
2008,11,22,03,08,6.20
2008,11,22,03,09,6.20
2008,11,22,03,10,6.20
2008,11,22,03,11,6.20
2008,11,22,03,12,6.20
2008,11,22,03,13,6.20
2008,11,22,03,14,6.20
2008,11,22,03,15,6.20
2008,11,22,03,16,6.20
2008,11,22,03,17,6.30
2008,11,22,03,18,6.30
2008,11,22,03,19,6.30
2008,11,22,03,20,6.30
2008,11,22,03,21,6.30
2008,11,22,03,22,6.30
2008,11,22,03,23,6.30
2008,11,22,03,24,6.30
2008,11,22,03,25,6.30
2008,11,22,03,26,6.30
2008,11,22,03,27,6.20
2008,11,22,03,28,6.20
2008,11,22,03,29,6.10
2008,11,22,03,30,6.10
2008,11,22,03,31,6.00
2008,11,22,03,32,6.00
2008,11,22,03,33,5.90
2008,11,22,03,34,5.90
2008,11,22,03,35,5.90
2008,11,22,03,36,5.90
2008,11,22,03,37,5.90
2008,11,22,03,38,5.90
2008,11,22,03,39,5.90
2008,11,22,03,40,5.80
2008,11,22,03,41,5.80
2008,11,22,03,42,5.80
2008,11,22,03,43,5.70
2008,11,22,03,44,5.70
2008,11,22,03,45,5.70
2008,11,22,03,46,5.70
2008,11,22,03,47,5.70
2008,11,22,03,48,5.80
2008,11,22,03,49,5.80
2008,11,22,03,50,5.80
2008,11,22,03,51,5.80
2008,11,22,03,52,5.70
2008,11,22,03,53,5.70
2008,11,22,03,54,5.70
2008,11,22,03,55,5.70
2008,11,22,03,56,5.70
2008,11,22,03,57,5.70
2008,11,22,03,58,5.70
2008,11,22,03,59,5.70
2008,11,22,04,00,5.70
2008,11,22,04,01,5.60
2008,11,22,04,02,5.60
2008,11,22,04,03,5.60
2008,11,22,04,05,5.60
2008,11,22,04,06,5.60
2008,11,22,04,07,5.60
2008,11,22,04,08,5.60
2008,11,22,04,09,5.60
2008,11,22,04,10,5.60
2008,11,22,04,11,5.60
2008,11,22,04,12,5.60
2008,11,22,04,13,5.60
2008,11,22,04,14,5.60
2008,11,22,04,15,5.60
2008,11,22,04,16,5.70
2008,11,22,04,17,5.70
2008,11,22,04,18,5.70
2008,11,22,04,19,5.70
2008,11,22,04,20,5.70
2008,11,22,04,21,5.70
2008,11,22,04,22,5.70
2008,11,22,04,23,5.70
2008,11,22,04,24,5.70
2008,11,22,04,25,5.70
2008,11,22,04,26,5.60
2008,11,22,04,27,5.60
2008,11,22,04,28,5.60
2008,11,22,04,29,5.60
2008,11,22,04,30,5.60
2008,11,22,04,31,5.50
2008,11,22,04,32,5.50
2008,11,22,04,33,5.50
2008,11,22,04,34,5.40
2008,11,22,04,35,5.40
2008,11,22,04,36,5.30
2008,11,22,04,37,5.30
2008,11,22,04,38,5.20
2008,11,22,04,39,5.20
2008,11,22,04,40,5.10
2008,11,22,04,41,5.10
2008,11,22,04,42,5.00
2008,11,22,04,43,4.90
2008,11,22,04,44,4.90
2008,11,22,04,45,4.90
2008,11,22,04,46,4.80
2008,11,22,04,47,4.70
2008,11,22,04,48,4.70
2008,11,22,04,49,4.60
2008,11,22,04,50,4.60
2008,11,22,04,51,4.50
2008,11,22,04,52,4.40
2008,11,22,04,53,4.40
2008,11,22,04,54,4.40
2008,11,22,04,55,4.40
2008,11,22,04,56,4.40
2008,11,22,04,57,4.40
2008,11,22,04,58,4.30
2008,11,22,04,59,4.30
2008,11,22,05,00,4.30
2008,11,22,05,01,4.20
2008,11,22,05,02,4.20
2008,11,22,05,03,4.30
2008,11,22,05,04,4.30
2008,11,22,05,05,4.40
2008,11,22,05,06,4.40
2008,11,22,05,07,4.30
2008,11,22,05,08,4.30
2008,11,22,05,09,4.20
2008,11,22,05,10,4.20
2008,11,22,05,11,4.10
2008,11,22,05,12,4.10
2008,11,22,05,13,4.10
2008,11,22,05,14,4.00
2008,11,22,05,15,3.90
2008,11,22,05,16,3.90
2008,11,22,05,17,3.80
2008,11,22,05,18,3.80
2008,11,22,05,19,3.70
2008,11,22,05,20,3.70
2008,11,22,05,21,3.70
2008,11,22,05,22,3.60
2008,11,22,05,23,3.60
2008,11,22,05,24,3.50
2008,11,22,05,25,3.50
2008,11,22,05,26,3.50
2008,11,22,05,27,3.40
2008,11,22,05,28,3.40
2008,11,22,05,29,3.40
2008,11,22,05,30,3.40
2008,11,22,05,31,3.40
2008,11,22,05,32,3.30
2008,11,22,05,33,3.30
2008,11,22,05,34,3.30
2008,11,22,05,35,3.30
2008,11,22,05,36,3.30
2008,11,22,05,37,3.30
2008,11,22,05,38,3.30
2008,11,22,05,39,3.30
2008,11,22,05,40,3.30
2008,11,22,05,41,3.30
2008,11,22,05,42,3.30
2008,11,22,05,43,3.30
2008,11,22,05,44,3.30
2008,11,22,05,45,3.30
2008,11,22,05,46,3.20
2008,11,22,05,47,3.20
2008,11,22,05,48,3.20
2008,11,22,05,49,3.20
2008,11,22,05,50,3.20
2008,11,22,05,51,3.20
2008,11,22,05,52,3.20
2008,11,22,05,53,3.20
2008,11,22,05,54,3.10
2008,11,22,05,55,3.20
2008,11,22,05,56,3.20
2008,11,22,05,57,3.10
2008,11,22,05,58,3.00
2008,11,22,05,59,3.00
2008,11,22,06,00,3.00
2008,11,22,06,01,3.00
2008,11,22,06,02,3.10
2008,11,22,06,03,3.10
2008,11,22,06,04,3.10
2008,11,22,06,05,3.10
2008,11,22,06,06,3.10
2008,11,22,06,07,3.10
2008,11,22,06,08,3.10
2008,11,22,06,09,3.10
2008,11,22,06,10,3.10
2008,11,22,06,11,3.10
2008,11,22,06,12,3.10
2008,11,22,06,13,3.10
2008,11,22,06,14,3.10
2008,11,22,06,15,3.10
2008,11,22,06,16,3.10
2008,11,22,06,17,3.10
2008,11,22,06,18,3.10
2008,11,22,06,19,3.10
2008,11,22,06,20,3.10
2008,11,22,06,21,3.00
2008,11,22,06,22,3.00
2008,11,22,06,23,2.90
2008,11,22,06,24,2.90
2008,11,22,06,25,2.90
2008,11,22,06,26,2.80
2008,11,22,06,27,2.80
2008,11,22,06,28,2.80
2008,11,22,06,29,2.70
2008,11,22,06,30,2.70
2008,11,22,06,31,2.70
2008,11,22,06,32,2.70
2008,11,22,06,33,2.70
2008,11,22,06,34,2.60
2008,11,22,06,35,2.70
2008,11,22,06,36,2.70
2008,11,22,06,37,2.70
2008,11,22,06,38,2.80
2008,11,22,06,39,3.00
2008,11,22,06,40,3.10
2008,11,22,06,41,3.00
2008,11,22,06,42,3.00
2008,11,22,06,43,2.90
2008,11,22,06,44,2.90
2008,11,22,06,45,2.90
2008,11,22,06,46,2.90
2008,11,22,06,47,2.90
2008,11,22,06,48,2.80
2008,11,22,06,49,2.90
2008,11,22,06,50,2.90
2008,11,22,06,51,2.90
2008,11,22,06,52,2.80
2008,11,22,06,53,2.80
2008,11,22,06,54,2.90
2008,11,22,06,55,2.90
2008,11,22,06,56,2.90
2008,11,22,06,57,2.90
2008,11,22,06,58,2.90
2008,11,22,06,59,2.80
2008,11,22,07,00,2.80
2008,11,22,07,01,2.80
2008,11,22,07,02,2.80
2008,11,22,07,03,2.80
2008,11,22,07,04,2.80
2008,11,22,07,05,2.90
2008,11,22,07,06,2.90
2008,11,22,07,07,2.90
2008,11,22,07,08,3.00
2008,11,22,07,09,3.00
2008,11,22,07,10,3.00
2008,11,22,07,11,3.10
2008,11,22,07,12,3.10
2008,11,22,07,13,3.10
2008,11,22,07,14,3.10
2008,11,22,07,15,3.10
2008,11,22,07,16,3.10
2008,11,22,07,17,3.10
2008,11,22,07,18,3.10
2008,11,22,07,19,3.10
2008,11,22,07,20,3.20
2008,11,22,07,21,3.20
2008,11,22,07,22,3.20
2008,11,22,07,23,3.20
2008,11,22,07,24,3.20
2008,11,22,07,25,3.20
2008,11,22,07,26,3.20
2008,11,22,07,27,3.20
2008,11,22,07,28,3.20
2008,11,22,07,29,3.20
2008,11,22,07,30,3.20
2008,11,22,07,31,3.20
2008,11,22,07,32,3.20
2008,11,22,07,33,3.30
2008,11,22,07,34,3.30
2008,11,22,07,35,3.40
2008,11,22,07,36,3.40
2008,11,22,07,37,3.40
2008,11,22,07,38,3.50
2008,11,22,07,39,3.50
2008,11,22,07,40,3.60
2008,11,22,07,41,3.70
2008,11,22,07,42,3.70
2008,11,22,07,43,3.70
2008,11,22,07,44,3.80
2008,11,22,07,45,3.80
2008,11,22,07,46,3.80
2008,11,22,07,47,3.80
2008,11,22,07,48,3.80
2008,11,22,07,49,3.90
2008,11,22,07,50,3.90
2008,11,22,07,51,3.90
2008,11,22,07,52,3.90
2008,11,22,07,53,3.90
2008,11,22,07,54,3.90
2008,11,22,07,55,3.90
2008,11,22,07,56,3.80
2008,11,22,07,57,3.80
2008,11,22,07,58,3.80
2008,11,22,07,59,3.80
2008,11,22,08,00,3.80
2008,11,22,08,01,3.80
2008,11,22,08,02,3.80
2008,11,22,08,03,3.80
2008,11,22,08,04,3.80
2008,11,22,08,05,3.80
2008,11,22,08,06,3.80
2008,11,22,08,07,3.80
2008,11,22,08,08,3.80
2008,11,22,08,09,3.80
2008,11,22,08,10,3.70
2008,11,22,08,11,3.70
2008,11,22,08,12,3.70
2008,11,22,08,13,3.70
2008,11,22,08,14,3.60
2008,11,22,08,15,3.60
2008,11,22,08,16,3.60
2008,11,22,08,17,3.60
2008,11,22,08,18,3.60
2008,11,22,08,19,3.60
2008,11,22,08,20,3.60
2008,11,22,08,21,3.50
2008,11,22,08,22,3.50
2008,11,22,08,23,3.50
2008,11,22,08,24,3.50
2008,11,22,08,25,3.50
2008,11,22,08,26,3.50
2008,11,22,08,27,3.50
2008,11,22,08,28,3.60
2008,11,22,08,29,3.60
2008,11,22,08,30,3.50
2008,11,22,08,31,3.50
2008,11,22,08,32,3.60
2008,11,22,08,33,3.60
2008,11,22,08,34,3.60
2008,11,22,08,35,3.60
2008,11,22,08,36,3.60
2008,11,22,08,37,3.60
2008,11,22,08,38,3.60
2008,11,22,08,39,3.60
2008,11,22,08,40,3.60
2008,11,22,08,41,3.60
2008,11,22,08,42,3.60
2008,11,22,08,43,3.50
2008,11,22,08,44,3.50
2008,11,22,08,45,3.50
2008,11,22,08,46,3.50
2008,11,22,08,47,3.60
2008,11,22,08,48,3.60
2008,11,22,08,49,3.60
2008,11,22,08,50,3.60
2008,11,22,08,51,3.60
2008,11,22,08,52,3.70
2008,11,22,08,53,3.70
2008,11,22,08,54,3.80
2008,11,22,08,55,3.80
2008,11,22,08,56,3.80
2008,11,22,08,57,3.90
2008,11,22,08,58,4.00
2008,11,22,08,59,4.10
2008,11,22,09,00,4.20
2008,11,22,09,01,4.30
2008,11,22,09,02,4.40
2008,11,22,09,03,4.40
2008,11,22,09,04,4.50
2008,11,22,09,05,4.60
2008,11,22,09,06,4.70
2008,11,22,09,07,4.80
2008,11,22,09,08,4.80
2008,11,22,09,09,4.90
2008,11,22,09,10,5.00
2008,11,22,09,11,5.10
2008,11,22,09,12,5.20
2008,11,22,09,13,5.20
2008,11,22,09,14,5.20
2008,11,22,09,15,5.30
2008,11,22,09,16,5.40
2008,11,22,09,17,5.50
2008,11,22,09,18,5.60
2008,11,22,09,19,5.70
2008,11,22,09,20,5.70
2008,11,22,09,21,5.70
2008,11,22,09,22,5.80
2008,11,22,09,23,5.80
2008,11,22,09,24,5.90
2008,11,22,09,25,6.00
2008,11,22,09,26,6.00
2008,11,22,09,27,6.10
2008,11,22,09,28,6.20
2008,11,22,09,29,6.30
2008,11,22,09,30,6.30
2008,11,22,09,31,6.40
2008,11,22,09,32,6.40
2008,11,22,09,33,6.50
2008,11,22,09,34,6.60
2008,11,22,09,35,6.60
2008,11,22,09,36,6.70
2008,11,22,09,37,6.80
2008,11,22,09,38,6.80
2008,11,22,09,39,6.90
2008,11,22,09,40,7.10
2008,11,22,09,41,7.10
2008,11,22,09,42,7.10
2008,11,22,09,43,7.20
2008,11,22,09,44,7.20
2008,11,22,09,45,7.20
2008,11,22,09,46,7.20
2008,11,22,09,47,7.20
2008,11,22,09,48,7.30
2008,11,22,09,49,7.30
2008,11,22,09,50,7.40
2008,11,22,09,51,7.50
2008,11,22,09,52,7.60
2008,11,22,09,53,7.60
2008,11,22,09,54,7.70
2008,11,22,09,55,7.80
2008,11,22,09,56,7.90
2008,11,22,09,57,8.00
2008,11,22,09,58,8.10
2008,11,22,09,59,8.20
2008,11,22,10,00,8.20
2008,11,22,10,01,8.30
2008,11,22,10,02,8.40
2008,11,22,10,03,8.50
2008,11,22,10,04,8.50
2008,11,22,10,05,8.60
2008,11,22,10,06,8.60
2008,11,22,10,07,8.60
2008,11,22,10,08,8.70
2008,11,22,10,09,8.70
2008,11,22,10,10,8.70
2008,11,22,10,11,8.80
2008,11,22,10,12,8.80
2008,11,22,10,13,8.80
2008,11,22,10,14,8.80
2008,11,22,10,15,8.70
2008,11,22,10,16,8.70
2008,11,22,10,17,8.60
2008,11,22,10,18,8.60
2008,11,22,10,19,8.50
2008,11,22,10,20,8.50
2008,11,22,10,21,8.50
2008,11,22,10,22,8.40
2008,11,22,10,23,8.40
2008,11,22,10,24,8.40
2008,11,22,10,25,8.40
2008,11,22,10,26,8.40
2008,11,22,10,27,8.40
2008,11,22,10,28,8.40
2008,11,22,10,29,8.50
2008,11,22,10,30,8.50
2008,11,22,10,31,8.60
2008,11,22,10,32,8.60
2008,11,22,10,33,8.70
2008,11,22,10,34,8.70
2008,11,22,10,35,8.70
2008,11,22,10,36,8.60
2008,11,22,10,37,8.50
2008,11,22,10,38,8.50
2008,11,22,10,39,8.40
2008,11,22,10,40,8.30
2008,11,22,10,41,8.20
2008,11,22,10,42,8.20
2008,11,22,10,43,8.10
2008,11,22,10,44,8.10
2008,11,22,10,45,8.00
2008,11,22,10,46,8.00
2008,11,22,10,47,7.90
2008,11,22,10,48,7.90
2008,11,22,10,49,7.80
2008,11,22,10,50,7.80
2008,11,22,10,51,7.70
2008,11,22,10,52,7.60
2008,11,22,10,53,7.60
2008,11,22,10,54,7.60
2008,11,22,10,55,7.50
2008,11,22,10,56,7.50
2008,11,22,10,57,7.60
2008,11,22,10,58,7.60
2008,11,22,10,59,7.60
2008,11,22,11,00,7.60
2008,11,22,11,01,7.60
2008,11,22,11,02,7.60
2008,11,22,11,03,7.60
2008,11,22,11,04,7.60
2008,11,22,11,05,7.60
2008,11,22,11,06,7.60
2008,11,22,11,07,7.60
2008,11,22,11,08,7.60
2008,11,22,11,09,7.70
2008,11,22,11,10,7.70
2008,11,22,11,11,7.70
2008,11,22,11,12,7.70
2008,11,22,11,13,7.70
2008,11,22,11,14,7.80
2008,11,22,11,15,7.80
2008,11,22,11,16,7.80
2008,11,22,11,17,7.80
2008,11,22,11,18,7.90
2008,11,22,11,19,7.90
2008,11,22,11,20,7.90
2008,11,22,11,21,8.00
2008,11,22,11,22,8.00
2008,11,22,11,23,8.10
2008,11,22,11,24,8.10
2008,11,22,11,25,8.10
2008,11,22,11,26,8.20
2008,11,22,11,27,8.20
2008,11,22,11,28,8.30
2008,11,22,11,29,8.30
2008,11,22,11,30,8.30
2008,11,22,11,31,8.40
2008,11,22,11,32,8.40
2008,11,22,11,33,8.40
2008,11,22,11,34,8.50
2008,11,22,11,35,8.50
2008,11,22,11,36,8.60
2008,11,22,11,37,8.60
2008,11,22,11,38,8.70
2008,11,22,11,39,8.70
2008,11,22,11,40,8.80
2008,11,22,11,41,8.80
2008,11,22,11,42,8.80
2008,11,22,11,43,8.80
2008,11,22,11,44,8.80
2008,11,22,11,45,8.80
2008,11,22,11,46,8.80
2008,11,22,11,47,8.80
2008,11,22,11,48,8.80
2008,11,22,11,49,8.80
2008,11,22,11,50,8.80
2008,11,22,11,51,8.80
2008,11,22,11,52,8.80
2008,11,22,11,53,8.80
2008,11,22,11,54,8.80
2008,11,22,11,55,8.80
2008,11,22,11,56,8.80
2008,11,22,11,57,8.80
2008,11,22,11,58,8.80
2008,11,22,11,59,8.80
2008,11,22,12,00,8.80
2008,11,22,12,01,8.80
2008,11,22,12,02,8.80
2008,11,22,12,03,8.80
2008,11,22,12,04,8.80
2008,11,22,12,05,8.80
2008,11,22,12,06,8.90
2008,11,22,12,07,8.90
2008,11,22,12,08,8.90
2008,11,22,12,09,9.00
2008,11,22,12,10,9.00
2008,11,22,12,11,8.90
2008,11,22,12,12,8.90
2008,11,22,12,13,8.90
2008,11,22,12,14,8.90
2008,11,22,12,15,8.90
2008,11,22,12,16,8.90
2008,11,22,12,17,8.90
2008,11,22,12,18,8.90
2008,11,22,12,19,8.90
2008,11,22,12,20,9.00
2008,11,22,12,21,9.00
2008,11,22,12,22,9.10
2008,11,22,12,23,9.10
2008,11,22,12,24,9.10
2008,11,22,12,25,9.10
2008,11,22,12,26,9.10
2008,11,22,12,27,9.00
2008,11,22,12,28,9.00
2008,11,22,12,29,8.90
2008,11,22,12,30,8.90
2008,11,22,12,31,8.90
2008,11,22,12,32,8.90
2008,11,22,12,33,8.90
2008,11,22,12,34,8.80
2008,11,22,12,35,8.80
2008,11,22,12,36,8.80
2008,11,22,12,37,8.80
2008,11,22,12,38,8.80
2008,11,22,12,39,8.80
2008,11,22,12,40,8.80
2008,11,22,12,41,8.90
2008,11,22,12,42,8.90
2008,11,22,12,43,8.90
2008,11,22,12,44,8.90
2008,11,22,12,45,8.90
2008,11,22,12,46,8.90
2008,11,22,12,47,9.00
2008,11,22,12,48,9.00
2008,11,22,12,49,9.10
2008,11,22,12,50,9.20
2008,11,22,12,51,9.20
2008,11,22,12,52,9.20
2008,11,22,12,53,9.20
2008,11,22,12,54,9.20
2008,11,22,12,55,9.20
2008,11,22,12,56,9.30
2008,11,22,12,57,9.30
2008,11,22,12,58,9.30
2008,11,22,12,59,9.30
2008,11,22,13,00,9.20
2008,11,22,13,01,9.20
2008,11,22,13,02,9.20
2008,11,22,13,03,9.10
2008,11,22,13,04,9.10
2008,11,22,13,05,9.10
2008,11,22,13,06,9.10
2008,11,22,13,07,9.10
2008,11,22,13,08,9.10
2008,11,22,13,09,9.10
2008,11,22,13,10,9.10
2008,11,22,13,11,9.10
2008,11,22,13,12,9.10
2008,11,22,13,13,9.10
2008,11,22,13,14,9.10
2008,11,22,13,15,9.10
2008,11,22,13,16,9.10
2008,11,22,13,17,9.10
2008,11,22,13,18,9.10
2008,11,22,13,19,9.20
2008,11,22,13,20,9.20
2008,11,22,13,21,9.10
2008,11,22,13,22,9.10
2008,11,22,13,23,9.00
2008,11,22,13,24,8.90
2008,11,22,13,25,8.80
2008,11,22,13,26,8.80
2008,11,22,13,27,8.70
2008,11,22,13,28,8.70
2008,11,22,13,29,8.70
2008,11,22,13,30,8.70
2008,11,22,13,31,8.60
2008,11,22,13,32,8.50
2008,11,22,13,33,8.50
2008,11,22,13,34,8.50
2008,11,22,13,35,8.50
2008,11,22,13,36,8.50
2008,11,22,13,37,8.60
2008,11,22,13,38,8.60
2008,11,22,13,39,8.70
2008,11,22,13,40,8.70
2008,11,22,13,41,8.80
2008,11,22,13,42,8.80
2008,11,22,13,43,8.80
2008,11,22,13,44,8.80
2008,11,22,13,45,8.70
2008,11,22,13,46,8.70
2008,11,22,13,47,8.70
2008,11,22,13,48,8.60
2008,11,22,13,49,8.60
2008,11,22,13,50,8.50
2008,11,22,13,51,8.50
2008,11,22,13,52,8.40
2008,11,22,13,53,8.40
2008,11,22,13,54,8.40
2008,11,22,13,55,8.30
2008,11,22,13,56,8.30
2008,11,22,13,57,8.30
2008,11,22,13,58,8.30
2008,11,22,13,59,8.30
2008,11,22,14,00,8.30
2008,11,22,14,01,8.30
2008,11,22,14,02,8.30
2008,11,22,14,03,8.30
2008,11,22,14,04,8.30
2008,11,22,14,05,8.40
2008,11,22,14,06,8.40
2008,11,22,14,07,8.50
2008,11,22,14,08,8.50
2008,11,22,14,09,8.50
2008,11,22,14,10,8.60
2008,11,22,14,11,8.60
2008,11,22,14,12,8.50
2008,11,22,14,13,8.50
2008,11,22,14,14,8.40
2008,11,22,14,15,8.40
2008,11,22,14,16,8.30
2008,11,22,14,17,8.20
2008,11,22,14,18,8.20
2008,11,22,14,19,8.20
2008,11,22,14,20,8.20
2008,11,22,14,21,8.20
2008,11,22,14,22,8.20
2008,11,22,14,23,8.10
2008,11,22,14,24,8.10
2008,11,22,14,25,8.10
2008,11,22,14,26,8.10
2008,11,22,14,27,8.00
2008,11,22,14,28,8.00
2008,11,22,14,29,7.90
2008,11,22,14,30,7.90
2008,11,22,14,31,7.90
2008,11,22,14,32,7.80
2008,11,22,14,33,7.80
2008,11,22,14,34,7.80
2008,11,22,14,35,7.80
2008,11,22,14,36,7.80
2008,11,22,14,37,7.80
2008,11,22,14,38,7.80
2008,11,22,14,39,7.80
2008,11,22,14,40,7.80
2008,11,22,14,41,7.90
2008,11,22,14,42,7.90
2008,11,22,14,43,7.90
2008,11,22,14,44,7.90
2008,11,22,14,45,7.90
2008,11,22,14,46,8.00
2008,11,22,14,47,8.00
2008,11,22,14,48,8.10
2008,11,22,14,49,8.10
2008,11,22,14,50,8.10
2008,11,22,14,51,8.10
2008,11,22,14,52,8.10
2008,11,22,14,53,8.10
2008,11,22,14,54,8.10
2008,11,22,14,55,8.10
2008,11,22,14,56,8.10
2008,11,22,14,57,8.10
2008,11,22,14,58,8.20
2008,11,22,14,59,8.20
2008,11,22,15,00,8.20
2008,11,22,15,01,8.20
2008,11,22,15,02,8.20
2008,11,22,15,03,8.20
2008,11,22,15,04,8.20
2008,11,22,15,05,8.10
2008,11,22,15,06,8.10
2008,11,22,15,07,8.10
2008,11,22,15,08,8.10
2008,11,22,15,09,8.00
2008,11,22,15,10,8.00
2008,11,22,15,11,7.90
2008,11,22,15,12,7.90
2008,11,22,15,13,7.90
2008,11,22,15,14,7.80
2008,11,22,15,15,7.80
2008,11,22,15,16,7.80
2008,11,22,15,17,7.70
2008,11,22,15,18,7.70
2008,11,22,15,19,7.70
2008,11,22,15,20,7.70
2008,11,22,15,21,7.60
2008,11,22,15,22,7.60
2008,11,22,15,23,7.60
2008,11,22,15,24,7.60
2008,11,22,15,25,7.50
2008,11,22,15,26,7.50
2008,11,22,15,27,7.40
2008,11,22,15,28,7.40
2008,11,22,15,29,7.40
2008,11,22,15,30,7.30
2008,11,22,15,31,7.30
2008,11,22,15,32,7.20
2008,11,22,15,33,7.20
2008,11,22,15,34,7.20
2008,11,22,15,35,7.20
2008,11,22,15,36,7.10
2008,11,22,15,37,7.10
2008,11,22,15,38,7.10
2008,11,22,15,39,7.10
2008,11,22,15,40,7.00
2008,11,22,15,41,7.00
2008,11,22,15,42,7.00
2008,11,22,15,43,6.90
2008,11,22,15,44,6.90
2008,11,22,15,45,6.90
2008,11,22,15,46,6.90
2008,11,22,15,47,6.90
2008,11,22,15,48,6.80
2008,11,22,15,49,6.80
2008,11,22,15,50,6.80
2008,11,22,15,51,6.80
2008,11,22,15,52,6.80
2008,11,22,15,53,6.80
2008,11,22,15,54,6.70
2008,11,22,15,55,6.70
2008,11,22,15,56,6.70
2008,11,22,15,57,6.60
2008,11,22,15,58,6.60
2008,11,22,15,59,6.60
2008,11,22,16,00,6.60
2008,11,22,16,01,6.50
2008,11,22,16,02,6.50
2008,11,22,16,03,6.50
2008,11,22,16,04,6.40
2008,11,22,16,05,6.40
2008,11,22,16,06,6.40
2008,11,22,16,07,6.40
2008,11,22,16,08,6.30
2008,11,22,16,09,6.30
2008,11,22,16,10,6.30
2008,11,22,16,11,6.20
2008,11,22,16,12,6.20
2008,11,22,16,13,6.20
2008,11,22,16,14,6.20
2008,11,22,16,15,6.10
2008,11,22,16,16,6.00
2008,11,22,16,17,6.00
2008,11,22,16,18,5.90
2008,11,22,16,19,5.90
2008,11,22,16,20,5.80
2008,11,22,16,21,5.80
2008,11,22,16,22,5.70
2008,11,22,16,23,5.70
2008,11,22,16,24,5.70
2008,11,22,16,25,5.60
2008,11,22,16,26,5.60
2008,11,22,16,27,5.60
2008,11,22,16,28,5.50
2008,11,22,16,29,5.50
2008,11,22,16,30,5.40
2008,11,22,16,31,5.40
2008,11,22,16,32,5.30
2008,11,22,16,33,5.20
2008,11,22,16,34,5.20
2008,11,22,16,35,5.10
2008,11,22,16,36,5.10
2008,11,22,16,37,5.00
2008,11,22,16,38,4.90
2008,11,22,16,39,4.90
2008,11,22,16,40,4.80
2008,11,22,16,41,4.80
2008,11,22,16,42,4.80
2008,11,22,16,43,4.70
2008,11,22,16,44,4.70
2008,11,22,16,45,4.70
2008,11,22,16,46,4.70
2008,11,22,16,47,4.60
2008,11,22,16,48,4.60
2008,11,22,16,49,4.60
2008,11,22,16,50,4.50
2008,11,22,16,51,4.40
2008,11,22,16,52,4.40
2008,11,22,16,53,4.40
2008,11,22,16,54,4.40
2008,11,22,16,55,4.30
2008,11,22,16,56,4.30
2008,11,22,16,57,4.30
2008,11,22,16,58,4.30
2008,11,22,16,59,4.20
2008,11,22,17,00,4.20
2008,11,22,17,01,4.20
2008,11,22,17,02,4.20
2008,11,22,17,03,4.10
2008,11,22,17,04,4.10
2008,11,22,17,05,4.10
2008,11,22,17,06,4.10
2008,11,22,17,07,4.00
2008,11,22,17,08,4.00
2008,11,22,17,09,4.00
2008,11,22,17,10,4.00
2008,11,22,17,11,4.00
2008,11,22,17,12,4.00
2008,11,22,17,13,4.00
2008,11,22,17,14,4.00
2008,11,22,17,15,4.00
2008,11,22,17,16,4.10
2008,11,22,17,17,4.00
2008,11,22,17,18,4.00
2008,11,22,17,19,4.00
2008,11,22,17,20,4.00
2008,11,22,17,21,4.00
2008,11,22,17,22,4.00
2008,11,22,17,23,4.00
2008,11,22,17,24,4.00
2008,11,22,17,25,4.00
2008,11,22,17,26,4.00
2008,11,22,17,27,4.10
2008,11,22,17,28,4.10
2008,11,22,17,29,4.10
2008,11,22,17,30,4.10
2008,11,22,17,31,4.10
2008,11,22,17,32,4.10
2008,11,22,17,33,4.00
2008,11,22,17,34,4.00
2008,11,22,17,35,4.00
2008,11,22,17,36,4.00
2008,11,22,17,37,4.00
2008,11,22,17,38,4.00
2008,11,22,17,39,4.00
2008,11,22,17,40,4.00
2008,11,22,17,41,4.00
2008,11,22,17,42,4.00
2008,11,22,17,43,3.90
2008,11,22,17,44,3.90
2008,11,22,17,45,3.90
2008,11,22,17,46,3.90
2008,11,22,17,47,3.80
2008,11,22,17,48,3.80
2008,11,22,17,49,3.80
2008,11,22,17,50,3.80
2008,11,22,17,51,3.80
2008,11,22,17,52,3.80
2008,11,22,17,53,3.80
2008,11,22,17,54,3.80
2008,11,22,17,55,3.80
2008,11,22,17,56,3.80
2008,11,22,17,57,3.80
2008,11,22,17,58,3.80
2008,11,22,17,59,3.80
2008,11,22,18,00,3.80
2008,11,22,18,01,3.80
2008,11,22,18,02,3.70
2008,11,22,18,03,3.70
2008,11,22,18,04,3.70
2008,11,22,18,05,3.70
2008,11,22,18,06,3.70
2008,11,22,18,07,3.70